Regional Weather Roundup
Issued by NWS Cleveland, OH

Home | Current Version | Previous Version | Text Only | Print | Product List | Glossary Off
Versions: 1 2 3 4 5 6 7 8 9 10 11 12 13 14 15 16 17 18 19 20 21 22 23 24 25 26 27 28 29 30 31 32 33 34 35 36 37 38 39 40 41 42 43 44 45 46 47 48 49 50

000
ASUS41 KCLE 051510
RWRCLE
OHIO REGIONAL WEATHER ROUNDUP
NATIONAL WEATHER SERVICE CLEVELAND, OH
1000 AM EST THU MAR 05 2015

NOTE: "FAIR" INDICATES FEW OR NO CLOUDS BELOW 12,000 FEET WITH NO
SIGNIFICANT WEATHER AND/OR OBSTRUCTIONS TO VISIBILITY.

OHZ001>008-015>018-024>027-034-035-043-044-051600-
   NORTHWEST OHIO

CITY           SKY/WX    TMP DP  RH WIND       PRES   REMARKS
DEFIANCE       PTSUNNY   15   1  53 NE5       30.41R WCI   8
FINDLAY        PTSUNNY   16   3  56 N9        30.37R WCI   4
TOLEDO EXPRESS MOSUNNY   13   2  61 N5        30.40R WCI   5
TOLEDO EXEC    PTSUNNY   14   3  61 N8        30.42R WCI   3
LIMA           CLOUDY    16   4  59 N8        30.37R WCI   5
$$

OHZ009>014-019>023-028>033-038-089-051600-
   NORTHEAST OHIO

CITY           SKY/WX    TMP DP  RH WIND       PRES   REMARKS
CLE-HOPKINS    CLOUDY    12   2  64 N12       30.38R WCI  -2
CLE-LAKEFRONT  MOSUNNY   12   2  64 N9        30.38R WCI   0
CUY CO. ARPT   CLOUDY    14   3  62 NE12      30.35R WCI   0
LORAIN-ELYRIA  MOSUNNY   12   2  64 NE9       30.37R WCI   0
ASHTABULA      PTSUNNY   10   1  67 N8        30.33F WCI  -2
AKRON-CANTON   CLOUDY    14   1  56 N10       30.29R WCI   1
WOOSTER        PTSUNNY   13   4  67 N9        30.31R WCI   1
MANSFIELD      PTSUNNY   13   1  59 NE7       30.30R WCI   3
YOUNGSTOWN     CLOUDY    11   1  64 N12       30.29R WCI  -3
$$

OHZ042-051>053-060>062-070>072-077>081-051600-
  SOUTHWEST OHIO

CITY           SKY/WX    TMP DP  RH WIND       PRES   REMARKS
CINC-COVINGTON CLOUDY    20   9  62 N12       30.31F WCI   8
CINC-LUNKEN    CLOUDY    20   7  57 N10       30.35F WCI   9
HAMILTON       CLOUDY    20   6  55 NE10      30.35F WCI   9
DAYTON         CLOUDY    18   4  54 N9        30.33F WCI   7
WRIGHT-PAT AFB CLOUDY    17   4  56 N8        30.33F WCI   7
DAYTON GENERAL CLOUDY    18   2  49 N10       30.30F WCI   6
WILMINGTON     CLOUDY    17   3  54 N10       30.29F WCI   5
$$

OHZ036-037-039>041-045>050-054>059-063>069-073>076-082>088-051600-
  CENTRAL AND SOUTHEAST OHIO

CITY           SKY/WX    TMP DP  RH WIND       PRES   REMARKS
COLUMBUS       CLOUDY    17   5  59 N9        30.34R WCI   6
OSU AIRPORT    CLOUDY    17   5  59 N9        30.33R WCI   6
BOLTON FIELD   CLOUDY    18   7  62 NW9       30.33R WCI   6
RICKENBACK AFB CLOUDY    18   7  60 N10       30.31F WCI   6
NEWARK         CLOUDY    19   5  54 VRB7      30.32R WCI  10
MARION         CLOUDY    15   4  61 N9        30.35R WCI   3
LANCASTER      CLOUDY    19   7  59 N7        30.32R WCI  10
ZANESVILLE     CLOUDY    18   5  57 N8        30.30R WCI   8
NEW PHILLY     CLOUDY    18   5  57 N8        30.32R WCI   8
$$


USA.gov is the U.S. government's official web portal to all federal, state and local government web resources and services.